DELTA 1 DEB

Satellite information

Favourite Embed

Satellite Type and Status

DEBRISIN ORBIT

Key statistics

Satellite DELTA 1 DEB at a glance.

Uptime

17937

Days in orbit

Revolutions

≈ 12.6

Per day

Orbit

SSO

Sun Synchronous Orbit

Inclination

101.4

Latest

Satellite identification and parameters

Extended collection of information and parameters for DELTA 1 DEB.

Object identification

Identified? True

Debris? True

Object name: DELTA 1 DEB

International designator: 1976-077GM

Object number (NORAD): 40768

Object ID (CCSDS): 40768

Country: UNITED STATES OF AMERICA (US)

Current information (Y/N): Y

RCS size: SMALL

Orbital parameters

Period: 113.934 minutes

Inclination: 101.3725 deg

SMA: 7785.064 km

Apoapsis: 1444.22 km

Periapsis: 1369.638 km

RAAN: 229.1553 deg

Eccentricy: 0.00479005

Argument of periapsis: 248.4059 deg

Mean anomaly: 111.1913 deg

Mean motion: 12.63890662 rev/day

Mean motion (dot): 0.00000586 rev/day2

B* drag term: 0.0034289647 1/REarth

Two-line elements (TLE)

Creation date: Sept. 4, 2025, 10:13 a.m.

Reference frame: TEME

Reference center: EARTH

Epoch: Sept. 4, 2025, 5:57 a.m. UTC

TLE line 0: 0 DELTA 1 DEB

TLE line 1: 1 40768U 76077GM 25247.24847576 .00000586 00000-0 34290-2 0 9994

TLE line 2: 2 40768 101.3725 229.1553 0047901 248.4059 111.1913 12.63890662542928

Live tracking on map

Real-time ground track for satellite DELTA 1 DEB.

In-orbit conjunctions

A list of the most updated potential collisions computed for object DELTA 1 DEB.

Target Orbit TCA Probability of collision Miss distance Type
DELTA 1 DEB SSO 2025-01-10 19:11:50 0.0001027078 169.0 (m) DEBRIS
SL-14 DEB LEO 2024-08-13 10:27:17 0.0001340794 173.0 (m) DEBRIS

Associated space launch

Meteorological satellite using radiometric imaging

DELTA 1 DEB was lifted into orbit during the mission ‘Delta 2310 | NOAA 5’, on board a Delta 2310 space rocket.

The launch took place on July 29, 1976, 5:07 p.m. from Space Launch Complex 2W.

For more information about the launch, click the button.

Launch to space Delta 2310 | NOAA 5
Delta 2310 | NOAA 5

Agency: N/A

Status: Launch Successful

Launch date: July 29, 1976, 5:07 p.m. UTC

Rocket: Delta 2310

Launch pad: Space Launch Complex 2W

Location: Vandenberg SFB, CA, USA

...

Latest news about this satellite

There are no fresh news available about this satellite. Check back as we update our databases every day.


Newsletter sign-up

Weekly statistics, charts and insights to help you stay on top of the space industry.